Hourly Data Report for March 19, 2017

All times are specified in Local Standard Time (LST). Add 1 hour to adjust for Daylight Saving Time where and when it is observed.

ST. JOHN'S INTL A
NEWFOUNDLAND

47°37'07.000" N
52°45'09.000" W
140.50 m
8403505
71801
YYT

Download Data

Hourly Data (March 2017)
Hourly Data Report for March 19, 2017
Temp Definition
°C
Dew Point Temp Definition
°C
Rel Hum Definition
%
Wind Dir Definition
10's deg

Wind Spd Definition
km/h
Visibility Definition
km
Stn Press Definition
kPa
Hmdx Definition


Wind Chill Definition


Weather Definition


TIME
00:30 Legend Double Dagger -5.9 -8.5 82 26 18 24.1 100.70   -12 LegendNANA
01:30 Legend Double Dagger -7.2 -9.0 87 25 13 24.1 100.75   -13 LegendNANA
02:30 Legend Double Dagger -7.4 -9.2 87 26 10 24.1 100.80   -12 Clear
03:30 Legend Double Dagger -5.8 -7.6 87 26 21 24.1 100.83   -13 LegendNANA
04:30 Legend Double Dagger -6.0 -7.7 88 26 18 24.1 100.89   -12 LegendNANA
05:30 Legend Double Dagger -6.8 -8.0 91 27 15 24.1 100.96   -13 Mainly Clear
06:30 Legend Double Dagger -7.0 -8.2 91 27 15 24.1 101.04   -13 LegendNANA
07:30 Legend Double Dagger -5.5 -7.3 87 28 16 24.1 101.11   -11 LegendNANA
08:30 Legend Double Dagger -4.5 -7.1 82 29 18 24.1 101.17   -11 Mainly Clear
09:30 Legend Double Dagger -2.9 -7.6 70 28 15 24.1 101.21   -8 LegendNANA
10:30 Legend Double Dagger -1.7 -8.5 60 29 7 24.1 101.23   -4 LegendNANA
11:30 Legend Double Dagger -0.6 -9.0 53 30 6 24.1 101.26   -3 Mainly Clear
12:30 Legend Double Dagger 0.1 -7.7 56 28 15 24.1 101.34     LegendNANA
13:30 Legend Double Dagger 0.6 -8.7 50 29 8 24.1 101.31     LegendNANA
14:30 Legend Double Dagger 1.6 -12.0 36 28 5 24.1 101.29     Mainly Clear
15:30 Legend Double Dagger -0.4 -6.8 62 12 14 24.1 101.24   -5 LegendNANA
16:30 Legend Double Dagger -1.1 -6.9 65 15 18 24.1 101.23   -6 LegendNANA
17:30 Legend Double Dagger -2.1 -6.5 72 13 15 24.1 101.24   -7 Mostly Cloudy
18:30 Legend Double Dagger -2.9 -5.1 85 16 10 24.1 101.27   -7 LegendNANA
19:30 Legend Double Dagger -2.9 -4.5 89 14 9 24.1 101.24   -6 LegendNANA
20:30 Legend Double Dagger -3.0 -4.1 92 20 4 24.1 101.25   -5 Mostly Cloudy
21:30 Legend Double Dagger -2.7 -4.9 85 27 17 24.1 101.26   -8 LegendNANA
22:30 Legend Double Dagger -2.9 -5.1 85 26 17 24.1 101.27   -8 LegendNANA
23:30 Legend Double Dagger -3.2 -5.2 86 22 9 24.1 101.22   -7 Cloudy

Notes on Data Quality.

Legend

  • E = Estimated
  • M = Missing
  • NA = Not Available
  • ‡ = Partner data that is not subject to review by the National Climate Archives
Date modified: